WZZ310 EPWR-EDLW

Flight info

Callsign WZZ310
Flight time 1h 14m
Altitude 34000
Route ULGIL Z348 RENDO M748 BOLBO DCT HLZ L980 OSNAD M170 HMM N853 DOMEG DOMEG2A
Aircraft A321/M-SDE3FGHIRWY/LB1

Departure

Time 2026-05-04 11:51
Airport Copernicus Wrocław Airport (EPWR)

Arrival

Time 2026-05-04 13:05
Airport Dortmund Airport (EDLW)
Time Latitude Longitude Altitude Speed Heading
2026-05-04 11:31 51.10943 16.87719 404 ft 0 kts 26°
2026-05-04 11:38 51.10940 16.87717 403 ft 3 kts 26°
2026-05-04 11:39 51.10917 16.87699 400 ft 3 kts 26°
2026-05-04 11:39 51.10895 16.87687 398 ft 4 kts 348°
2026-05-04 11:40 51.10870 16.87729 398 ft 0 kts 296°
2026-05-04 11:42 51.10874 16.87717 399 ft 3 kts 296°
2026-05-04 11:42 51.10892 16.87658 399 ft 8 kts 296°
2026-05-04 11:42 51.10924 16.87552 403 ft 13 kts 296°
2026-05-04 11:42 51.10949 16.87440 408 ft 10 kts 261°
2026-05-04 11:43 51.10893 16.87380 403 ft 10 kts 205°
2026-05-04 11:43 51.10825 16.87328 403 ft 11 kts 207°
2026-05-04 11:43 51.10780 16.87291 403 ft 0 kts 207°
2026-05-04 11:47 51.10771 16.87284 403 ft 4 kts 207°
2026-05-04 11:47 51.10730 16.87251 404 ft 9 kts 207°
2026-05-04 11:47 51.10662 16.87298 402 ft 15 kts 119°
2026-05-04 11:47 51.10607 16.87477 419 ft 21 kts 116°
2026-05-04 11:48 51.10535 16.87713 401 ft 26 kts 116°
2026-05-04 11:48 51.10448 16.87996 403 ft 31 kts 116°
2026-05-04 11:48 51.10349 16.88317 401 ft 34 kts 116°
2026-05-04 11:48 51.10238 16.88679 404 ft 39 kts 116°
2026-05-04 11:49 51.10121 16.89060 404 ft 32 kts 115°
2026-05-04 11:49 51.10024 16.89377 404 ft 29 kts 116°
2026-05-04 11:49 51.09938 16.89656 404 ft 14 kts 121°
2026-05-04 11:49 51.09923 16.89739 400 ft 8 kts 360°
2026-05-04 11:50 51.09947 16.89624 404 ft 16 kts 295°
2026-05-04 11:50 51.10079 16.89188 403 ft 78 kts 295°
2026-05-04 11:50 51.10411 16.88100 406 ft 138 kts 296°
2026-05-04 11:50 51.10875 16.86562 737 ft 155 kts 296°
2026-05-04 11:51 51.11342 16.85033 1425 ft 154 kts 296°
2026-05-04 11:51 51.11813 16.83515 2077 ft 156 kts 295°
2026-05-04 11:51 51.12312 16.81863 2345 ft 176 kts 295°
2026-05-04 11:51 51.12446 16.79830 2545 ft 200 kts 251°
2026-05-04 11:52 51.11570 16.78012 2769 ft 221 kts 219°
2026-05-04 11:52 51.10342 16.76335 2917 ft 246 kts 226°
2026-05-04 11:52 51.09231 16.74118 3278 ft 264 kts 237°
2026-05-04 11:52 51.08258 16.71612 3968 ft 268 kts 240°
2026-05-04 11:53 51.07338 16.69041 4808 ft 267 kts 240°
2026-05-04 11:53 51.06426 16.66464 5591 ft 268 kts 240°
2026-05-04 11:53 51.05497 16.63890 6389 ft 269 kts 239°
2026-05-04 11:53 51.04548 16.61322 7119 ft 270 kts 239°
2026-05-04 11:55 51.02175 16.41496 10345 ft 302 kts 284°
2026-05-04 11:55 51.02819 16.38191 10480 ft 324 kts 284°
2026-05-04 11:56 51.03501 16.34678 10720 ft 340 kts 284°
2026-05-04 11:56 51.04205 16.31060 11255 ft 345 kts 284°
2026-05-04 11:56 51.04922 16.27394 11898 ft 348 kts 284°
2026-05-04 11:56 51.05641 16.23716 12556 ft 350 kts 284°
2026-05-04 11:57 51.06366 16.20002 13195 ft 352 kts 284°
2026-05-04 11:57 51.07094 16.16265 13811 ft 355 kts 284°
2026-05-04 11:57 51.07825 16.12492 14371 ft 358 kts 284°
2026-05-04 11:57 51.08560 16.08697 14949 ft 361 kts 284°
2026-05-04 11:58 51.09239 16.05175 15458 ft 364 kts 284°
2026-05-04 11:58 51.09890 16.01282 16017 ft 365 kts 277°
2026-05-04 11:58 51.10115 15.98636 16392 ft 365 kts 274°
2026-05-04 11:59 51.10411 15.94606 16959 ft 368 kts 274°
2026-05-04 11:59 51.10710 15.90547 17511 ft 371 kts 274°
2026-05-04 11:59 51.11011 15.86448 18062 ft 374 kts 275°
2026-05-04 11:59 51.11408 15.80979 18726 ft 378 kts 275°
2026-05-04 12:00 51.11611 15.78163 19055 ft 379 kts 275°
2026-05-04 12:00 51.12008 15.72612 19696 ft 383 kts 275°
2026-05-04 12:00 51.12211 15.69765 20021 ft 385 kts 275°
2026-05-04 12:00 51.12515 15.65523 20512 ft 387 kts 275°
2026-05-04 12:01 51.12831 15.61254 20983 ft 390 kts 277°
2026-05-04 12:01 51.13351 15.56991 21430 ft 394 kts 279°
2026-05-04 12:02 51.16631 15.30926 24001 ft 406 kts 279°
2026-05-04 12:03 51.17183 15.26507 24389 ft 407 kts 279°
2026-05-04 12:03 51.17733 15.22074 24764 ft 409 kts 279°
2026-05-04 12:03 51.18284 15.17621 25139 ft 410 kts 279°
2026-05-04 12:03 51.18835 15.13140 25488 ft 412 kts 278°
2026-05-04 12:04 51.19384 15.08648 25835 ft 414 kts 278°
2026-05-04 12:04 51.19933 15.04137 26186 ft 415 kts 278°
2026-05-04 12:04 51.20462 14.99595 26535 ft 417 kts 277°
2026-05-04 12:04 51.20875 14.95070 26879 ft 418 kts 275°
2026-05-04 12:05 51.21205 14.90469 27202 ft 419 kts 274°
2026-05-04 12:05 51.21489 14.85824 27558 ft 420 kts 273°
2026-05-04 12:05 51.21761 14.81182 27888 ft 421 kts 273°
2026-05-04 12:05 51.22044 14.76521 28209 ft 423 kts 274°
2026-05-04 12:06 51.22345 14.71838 28525 ft 425 kts 274°
2026-05-04 12:06 51.22664 14.67155 28839 ft 426 kts 274°
2026-05-04 12:06 51.22989 14.62447 29154 ft 428 kts 274°
2026-05-04 12:06 51.23316 14.57719 29469 ft 430 kts 274°
2026-05-04 12:07 51.23644 14.52973 29788 ft 431 kts 274°
2026-05-04 12:07 51.23971 14.48207 30141 ft 431 kts 274°
2026-05-04 12:07 51.24292 14.43464 30528 ft 429 kts 274°
2026-05-04 12:07 51.24608 14.38739 30929 ft 427 kts 274°
2026-05-04 12:08 51.24914 14.34095 31333 ft 425 kts 274°
2026-05-04 12:08 51.25220 14.29416 31713 ft 423 kts 274°
2026-05-04 12:08 51.25526 14.24747 32088 ft 421 kts 274°
2026-05-04 12:08 51.25827 14.20109 32452 ft 420 kts 274°
2026-05-04 12:09 51.26122 14.15478 32812 ft 419 kts 274°
2026-05-04 12:09 51.26412 14.10854 33168 ft 418 kts 274°
2026-05-04 12:09 51.26700 14.06252 33526 ft 416 kts 274°
2026-05-04 12:09 51.26987 14.01654 33886 ft 415 kts 274°
2026-05-04 12:10 51.28054 13.92624 33996 ft 415 kts 286°
2026-05-04 12:10 51.30845 13.84545 33996 ft 423 kts 307°
2026-05-04 12:11 51.35196 13.78105 33982 ft 428 kts 314°
2026-05-04 12:11 51.39679 13.71833 33979 ft 428 kts 314°
2026-05-04 12:12 51.44142 13.65534 33980 ft 428 kts 314°
2026-05-04 12:12 51.48603 13.59218 33985 ft 428 kts 314°
2026-05-04 12:14 51.66407 13.33898 33990 ft 427 kts 313°
2026-05-04 12:15 51.70851 13.27526 33985 ft 427 kts 313°
2026-05-04 12:15 51.75280 13.21153 33984 ft 427 kts 313°
2026-05-04 12:16 51.79252 13.14263 34013 ft 418 kts 298°
2026-05-04 12:16 51.81797 13.05952 33985 ft 411 kts 288°
2026-05-04 12:17 51.83957 12.97390 33977 ft 412 kts 288°
2026-05-04 12:17 51.86123 12.88818 33979 ft 412 kts 288°
2026-05-04 12:18 51.88285 12.80221 33976 ft 412 kts 288°
2026-05-04 12:18 51.90436 12.71624 33994 ft 412 kts 287°
2026-05-04 12:19 51.92577 12.63024 33991 ft 412 kts 287°
2026-05-04 12:19 51.94715 12.54415 33990 ft 411 kts 287°
2026-05-04 12:20 51.96829 12.45867 33987 ft 411 kts 287°
2026-05-04 12:20 51.98955 12.37255 33990 ft 411 kts 287°
2026-05-04 12:21 52.01063 12.28634 34011 ft 411 kts 287°
2026-05-04 12:21 52.03171 12.20005 34005 ft 411 kts 287°
2026-05-04 12:22 52.05280 12.11367 33998 ft 411 kts 287°
2026-05-04 12:22 52.07376 12.02721 33995 ft 411 kts 287°
2026-05-04 12:23 52.09456 11.94064 33993 ft 411 kts 287°
2026-05-04 12:23 52.11538 11.85406 34003 ft 411 kts 287°
2026-05-04 12:24 52.13607 11.76798 33998 ft 411 kts 287°
2026-05-04 12:24 52.15673 11.68139 33999 ft 410 kts 286°
2026-05-04 12:25 52.17730 11.59472 33998 ft 410 kts 286°
2026-05-04 12:25 52.19781 11.50791 33996 ft 410 kts 286°
2026-05-04 12:26 52.21826 11.42118 34016 ft 410 kts 286°
2026-05-04 12:26 52.23863 11.33488 33993 ft 405 kts 286°
2026-05-04 12:27 52.25868 11.24907 33991 ft 405 kts 285°
2026-05-04 12:27 52.27866 11.16308 33990 ft 405 kts 285°
2026-05-04 12:28 52.29848 11.07760 33992 ft 405 kts 285°
2026-05-04 12:28 52.31840 10.99137 34000 ft 405 kts 285°
2026-05-04 12:29 52.33827 10.90506 34015 ft 406 kts 285°
2026-05-04 12:29 52.35528 10.81775 34016 ft 399 kts 275°
2026-05-04 12:30 52.35540 10.72848 34016 ft 391 kts 258°
2026-05-04 12:30 52.34491 10.64146 34016 ft 390 kts 257°
2026-05-04 12:31 52.33435 10.55451 34015 ft 390 kts 257°
2026-05-04 12:31 52.32374 10.46747 34008 ft 390 kts 257°
2026-05-04 12:32 52.30788 10.33770 33966 ft 390 kts 256°
2026-05-04 12:33 52.29710 10.25070 33965 ft 391 kts 256°
2026-05-04 12:33 52.28616 10.16352 33970 ft 392 kts 256°
2026-05-04 12:34 52.27513 10.07626 33988 ft 393 kts 256°
2026-05-04 12:34 52.26410 9.98895 33990 ft 393 kts 256°
2026-05-04 12:35 52.25302 9.90157 34011 ft 393 kts 257°
2026-05-04 12:35 52.24893 9.81224 34008 ft 396 kts 264°
2026-05-04 12:36 52.24663 9.72245 34003 ft 396 kts 264°
2026-05-04 12:36 52.24419 9.63278 34002 ft 396 kts 264°
2026-05-04 12:37 52.24170 9.54316 34002 ft 395 kts 264°
2026-05-04 12:37 52.23914 9.45406 34000 ft 395 kts 264°
2026-05-04 12:37 52.23779 9.40926 33786 ft 395 kts 264°
2026-05-04 12:38 52.23642 9.36453 33507 ft 394 kts 264°
2026-05-04 12:38 52.23501 9.31986 33221 ft 394 kts 264°
2026-05-04 12:38 52.23364 9.27538 32960 ft 392 kts 264°
2026-05-04 12:38 52.23231 9.23107 32691 ft 390 kts 264°
2026-05-04 12:39 52.23102 9.18701 32351 ft 386 kts 264°
2026-05-04 12:39 52.22978 9.14345 31862 ft 383 kts 264°
2026-05-04 12:39 52.22849 9.10027 31383 ft 379 kts 264°
2026-05-04 12:39 52.22717 9.05748 30904 ft 376 kts 264°
2026-05-04 12:40 52.22581 9.01513 30428 ft 372 kts 264°
2026-05-04 12:40 52.22444 8.97308 29944 ft 369 kts 264°
2026-05-04 12:40 52.22306 8.93152 29445 ft 365 kts 264°
2026-05-04 12:40 52.22169 8.89040 29009 ft 361 kts 264°
2026-05-04 12:41 52.22038 8.84972 28539 ft 357 kts 264°
2026-05-04 12:41 52.21907 8.80948 28094 ft 353 kts 263°
2026-05-04 12:41 52.21776 8.76967 27659 ft 350 kts 263°
2026-05-04 12:41 52.21647 8.73068 27232 ft 347 kts 263°
2026-05-04 12:42 52.21515 8.69153 26818 ft 345 kts 263°
2026-05-04 12:42 52.21379 8.65260 26403 ft 342 kts 263°
2026-05-04 12:42 52.21241 8.61405 26001 ft 340 kts 263°
2026-05-04 12:42 52.21103 8.57573 25586 ft 337 kts 263°
2026-05-04 12:43 52.20963 8.53772 25223 ft 334 kts 263°
2026-05-04 12:43 52.20824 8.49999 24848 ft 331 kts 263°
2026-05-04 12:43 52.20684 8.46270 24473 ft 329 kts 263°
2026-05-04 12:43 52.20546 8.42562 24098 ft 327 kts 263°
2026-05-04 12:44 52.20407 8.38867 23732 ft 325 kts 263°
2026-05-04 12:44 52.20269 8.35194 23308 ft 323 kts 262°
2026-05-04 12:44 52.19916 8.31659 22917 ft 317 kts 252°
2026-05-04 12:44 52.19132 8.28275 22543 ft 314 kts 242°
2026-05-04 12:45 52.17998 8.25297 22169 ft 313 kts 232°
2026-05-04 12:45 52.16546 8.22661 21784 ft 313 kts 226°
2026-05-04 12:45 52.15040 8.20117 21405 ft 312 kts 227°
2026-05-04 12:45 52.13534 8.17570 21018 ft 311 kts 226°
2026-05-04 12:46 52.12035 8.15035 20624 ft 311 kts 226°
2026-05-04 12:46 52.10537 8.12503 20225 ft 310 kts 226°
2026-05-04 12:46 52.09043 8.09979 19842 ft 309 kts 226°
2026-05-04 12:46 52.07553 8.07461 19445 ft 309 kts 226°
2026-05-04 12:47 52.06061 8.04949 19056 ft 308 kts 226°
2026-05-04 12:47 52.04572 8.02448 18664 ft 307 kts 226°
2026-05-04 12:47 52.03093 7.99960 18264 ft 307 kts 226°
2026-05-04 12:47 52.01612 7.97468 17805 ft 306 kts 226°
2026-05-04 12:48 52.00141 7.94997 17404 ft 304 kts 226°
2026-05-04 12:48 51.98695 7.92569 17023 ft 302 kts 226°
2026-05-04 12:48 51.97219 7.90093 16630 ft 300 kts 226°
2026-05-04 12:48 51.95790 7.87696 16237 ft 300 kts 226°
2026-05-04 12:49 51.94339 7.85268 15856 ft 299 kts 226°
2026-05-04 12:49 51.92891 7.82848 15460 ft 298 kts 226°
2026-05-04 12:49 51.91449 7.80438 15081 ft 297 kts 226°
2026-05-04 12:49 51.90011 7.78035 14686 ft 297 kts 226°
2026-05-04 12:50 51.88577 7.75644 14296 ft 296 kts 226°
2026-05-04 12:50 51.87143 7.73256 13908 ft 295 kts 227°
2026-05-04 12:50 51.85633 7.71021 13496 ft 295 kts 217°
2026-05-04 12:50 51.83872 7.69315 13100 ft 294 kts 208°
2026-05-04 12:51 51.82049 7.67830 12713 ft 293 kts 208°
2026-05-04 12:51 51.80238 7.66346 12314 ft 291 kts 208°
2026-05-04 12:51 51.78436 7.64858 11936 ft 292 kts 208°
2026-05-04 12:51 51.76580 7.63318 11306 ft 304 kts 208°
2026-05-04 12:52 51.74676 7.61757 10542 ft 304 kts 208°
2026-05-04 12:52 51.72844 7.60269 10276 ft 287 kts 206°
2026-05-04 12:52 51.70966 7.59301 9817 ft 282 kts 191°
2026-05-04 12:52 51.69020 7.59186 9347 ft 280 kts 175°
2026-05-04 12:53 51.67096 7.59639 8872 ft 279 kts 173°
2026-05-04 12:53 51.65183 7.60100 8405 ft 278 kts 173°
2026-05-04 12:53 51.63257 7.60559 7958 ft 280 kts 173°
2026-05-04 12:53 51.61338 7.61016 7634 ft 277 kts 173°
2026-05-04 12:54 51.59447 7.61464 7157 ft 276 kts 173°
2026-05-04 12:54 51.57558 7.61913 6732 ft 273 kts 173°
2026-05-04 12:54 51.55691 7.62351 6188 ft 271 kts 174°
2026-05-04 12:54 51.53829 7.62295 5673 ft 266 kts 192°
2026-05-04 12:55 51.52113 7.61268 5181 ft 261 kts 211°
2026-05-04 12:55 51.50731 7.59425 4740 ft 258 kts 230°
2026-05-04 12:55 51.49624 7.57161 4286 ft 258 kts 231°
2026-05-04 12:55 51.48525 7.54924 3940 ft 251 kts 228°
2026-05-04 12:56 51.47129 7.53277 3991 ft 255 kts 200°
2026-05-04 12:56 51.45980 7.52890 4007 ft 257 kts 181°
2026-05-04 12:56 51.44245 7.53510 4003 ft 260 kts 153°
2026-05-04 12:56 51.42897 7.55440 4007 ft 265 kts 124°
2026-05-04 12:57 51.42284 7.58218 4001 ft 270 kts 96°
2026-05-04 12:57 51.42562 7.61185 4003 ft 271 kts 70°
2026-05-04 12:57 51.43329 7.63872 3997 ft 258 kts 64°
2026-05-04 12:57 51.44119 7.66368 4003 ft 246 kts 64°
2026-05-04 12:58 51.44908 7.68809 4004 ft 246 kts 64°
2026-05-04 12:58 51.45695 7.71251 4006 ft 247 kts 64°
2026-05-04 12:58 51.46476 7.73705 4007 ft 248 kts 63°
2026-05-04 12:58 51.47258 7.76169 4011 ft 249 kts 63°
2026-05-04 12:59 51.48041 7.78630 4018 ft 248 kts 63°
2026-05-04 12:59 51.48814 7.81089 4003 ft 246 kts 64°
2026-05-04 12:59 51.49591 7.83544 4009 ft 247 kts 64°
2026-05-04 12:59 51.50486 7.85869 4017 ft 240 kts 47°
2026-05-04 13:00 51.51804 7.87397 4005 ft 233 kts 21°
2026-05-04 13:00 51.53362 7.87873 4001 ft 231 kts 355°
2026-05-04 13:00 51.54901 7.87258 3810 ft 226 kts 330°
2026-05-04 13:00 51.56105 7.85713 3574 ft 220 kts 309°
2026-05-04 13:01 51.57112 7.83902 3345 ft 215 kts 309°
2026-05-04 13:01 51.57868 7.81919 3002 ft 201 kts 285°
2026-05-04 13:01 51.58013 7.79769 2789 ft 186 kts 263°
2026-05-04 13:01 51.57663 7.77871 2585 ft 174 kts 243°
2026-05-04 13:02 51.57089 7.76219 2382 ft 164 kts 241°
2026-05-04 13:02 51.56539 7.74649 2144 ft 158 kts 241°
2026-05-04 13:02 51.56023 7.73173 1948 ft 147 kts 241°
2026-05-04 13:02 51.55528 7.71758 1754 ft 144 kts 241°
2026-05-04 13:03 51.55038 7.70360 1556 ft 143 kts 240°
2026-05-04 13:03 51.54554 7.68977 1368 ft 145 kts 240°
2026-05-04 13:03 51.54061 7.67573 1178 ft 144 kts 241°
2026-05-04 13:03 51.53567 7.66164 988 ft 145 kts 241°
2026-05-04 13:04 51.53073 7.64757 803 ft 144 kts 242°
2026-05-04 13:04 51.52586 7.63364 582 ft 143 kts 242°
2026-05-04 13:04 51.52102 7.61980 413 ft 136 kts 241°
2026-05-04 13:04 51.51728 7.60925 413 ft 69 kts 240°
2026-05-04 13:05 51.51562 7.60454 412 ft 39 kts 241°
2026-05-04 13:05 51.51469 7.60245 414 ft 15 kts 199°
2026-05-04 13:05 51.51385 7.60287 418 ft 11 kts 147°
2026-05-04 13:05 51.51359 7.60381 422 ft 9 kts 81°
2026-05-04 13:06 51.51394 7.60484 420 ft 11 kts 62°
2026-05-04 13:06 51.51435 7.60607 421 ft 14 kts 61°
2026-05-04 13:06 51.51492 7.60769 420 ft 18 kts 61°
2026-05-04 13:06 51.51546 7.60924 426 ft 14 kts 60°
2026-05-04 13:07 51.51559 7.61042 429 ft 9 kts 134°
2026-05-04 13:07 51.51499 7.61081 423 ft 10 kts 151°
2026-05-04 13:07 51.51468 7.61117 424 ft 0 kts 144°